Portsmouth, NH

2:50 PM EST on February 25, 2018 (GMT -0500)
Pease International Tradeport

Weather History for KPSM - May, 2013

Change the Weather History Date:

Thursday, May 23, 2013

  Actual Average Record
Temperature  
Mean Temperature 62 °F -  
Max Temperature 74 °F 64 °F 93 °F (1992)
Min Temperature 50 °F 45 °F 38 °F (1976)
Degree Days  
Heating Degree Days 3    
Growing Degree Days 12 (Base 50)    
Moisture  
Dew Point 58 °F    
Average Humidity 94    
Maximum Humidity 100    
Minimum Humidity 77    
Precipitation  
Precipitation 0.07 in - - ()
Sea Level Pressure  
Sea Level Pressure 29.87 in    
Wind  
Wind Speed 5 mph (SE)    
Max Wind Speed 12 mph    
Max Gust Speed 20 mph    
Visibility 5 miles    
Events Fog , Rain    
Averages and records for this station are not official NWS values.
T = Trace of Precipitation, MM = Missing Value Source: NWS Daily Summary

Daily Weather History Graph

Daily Weather History Graph

Search for Another Location

Airport or City:

Trip Planner

Search our weather history database for the weather conditions in past years. The results will help you decide how hot, cold, wet, or windy it might be!

Date:

Astronomy

May. 23, 2013 Rise Set
Actual Time 5:12 AM EDT 8:08 PM EDT
Civil Twilight 4:38 AM EDT 8:42 PM EDT
Nautical Twilight 3:55 AM EDT 9:25 PM EDT
Astronomical Twilight 3:05 AM EDT 10:15 PM EDT
Moon 6:35 PM EDT (5/23) 3:57 AM EDT (5/23)
Length of Visible Light 16h 03m
Length of Day
14h 56m
Waxing Gibbous, 97% of the Moon is Illuminated
May 23
Waxing Gibbous
May 25
Full
May 31
Last Quarter
Jun 8
New
Jun 16
First Quarter

Hourly Weather History & Observations

Time (EDT) Temp. Dew Point Humidity Pressure Visibility Wind Dir Wind Speed Gust Speed Precip Events Conditions
12:58 AM 51.3 °F 51.1 °F 99% 29.93 in 0.8 mi ENE 5.8 mph - N/A   Overcast
1:13 AM 51.8 °F 50.0 °F 94% 29.92 in 3.0 mi NNE 4.6 mph - N/A   Overcast
1:58 AM 50.9 °F 50.7 °F 99% 29.92 in 0.8 mi North 3.5 mph - N/A   Overcast
2:58 AM 50.7 °F 50.5 °F 99% 29.90 in 0.8 mi NE 3.5 mph - N/A   Overcast
3:58 AM 50.5 °F 50.4 °F 99% 29.89 in 0.8 mi East 3.5 mph - N/A   Overcast
4:58 AM 50.4 °F 50.2 °F 99% 29.89 in 0.5 mi East 2.3 mph - N/A Fog Fog
5:17 AM 50.0 °F 50.0 °F 100% 29.89 in 0.2 mi ENE 3.5 mph - N/A Fog Fog
5:42 AM 50.0 °F 50.0 °F 100% 29.90 in 0.5 mi ENE 2.3 mph - N/A Fog Fog
5:58 AM 50.5 °F 50.4 °F 99% 29.91 in 0.5 mi NNE 1.2 mph - N/A Fog Fog
6:29 AM 51.8 °F 51.8 °F 100% 29.91 in 0.8 mi NNW 2.3 mph - N/A   Overcast
6:58 AM 51.3 °F 51.1 °F 99% 29.92 in 1.0 mi North 3.5 mph - N/A   Overcast
7:28 AM 51.8 °F 51.8 °F 100% 29.91 in 3.0 mi NNE 2.3 mph - N/A   Overcast
7:58 AM 52.7 °F 52.3 °F 99% 29.91 in 3.0 mi Variable 2.3 mph - N/A   Overcast
8:25 AM 53.6 °F 53.6 °F 100% 29.90 in 1.5 mi Calm Calm - N/A   Overcast
8:58 AM 53.8 °F 53.6 °F 99% 29.91 in 1.5 mi SSE 2.3 mph - N/A   Overcast
9:34 AM 53.6 °F 53.6 °F 100% 29.89 in 0.8 mi SSE 3.5 mph - N/A   Overcast
9:58 AM 54.7 °F 54.3 °F 99% 29.90 in 0.8 mi Variable 1.2 mph - N/A   Overcast
10:58 AM 56.7 °F 56.5 °F 99% 29.89 in 1.0 mi SE 8.1 mph - N/A   Overcast
11:20 AM 55.4 °F 55.4 °F 100% 29.88 in 1.5 mi SE 6.9 mph - N/A Rain Light Rain Showers
11:58 AM 55.6 °F 55.2 °F 99% 29.89 in 2.0 mi SE 4.6 mph - 0.01 in Rain Light Rain Showers
12:28 PM 57.2 °F 55.4 °F 94% 29.88 in 3.0 mi South 3.5 mph - N/A   Overcast
12:46 PM 57.2 °F 57.2 °F 100% 29.88 in 2.0 mi South 1.2 mph - N/A Rain Light Rain Showers
12:58 PM 57.6 °F 57.2 °F 99% 29.88 in 4.0 mi SSE 2.3 mph - 0.00 in   Overcast
1:58 PM 62.2 °F 59.9 °F 92% 29.85 in 6.0 mi SE 2.3 mph - N/A   Overcast
2:14 PM 62.6 °F 60.8 °F 94% 29.83 in 10.0 mi East 2.3 mph - N/A   Overcast
2:22 PM 64.4 °F 62.6 °F 94% 29.83 in 10.0 mi ESE 5.8 mph - N/A   Mostly Cloudy
2:58 PM 68.7 °F 63.9 °F 84% 29.85 in 10.0 mi SSE 6.9 mph - N/A   Mostly Cloudy
3:58 PM 70.2 °F 64.0 °F 81% 29.83 in 10.0 mi SE 5.8 mph - N/A   Overcast
4:58 PM 74.5 °F 66.7 °F 77% 29.83 in 10.0 mi SSW 10.4 mph - N/A   Overcast
5:58 PM 73.0 °F 65.8 °F 78% 29.83 in 10.0 mi SSW 6.9 mph - N/A   Overcast
6:13 PM 73.4 °F 66.2 °F 78% 29.82 in 10.0 mi South 6.9 mph - N/A Rain Light Rain Showers
6:58 PM 70.2 °F 67.1 °F 90% 29.83 in 7.0 mi SSW 8.1 mph - 0.03 in Rain Light Rain Showers
7:28 PM 69.8 °F 66.2 °F 88% 29.81 in 10.0 mi SSW 6.9 mph - N/A   Mostly Cloudy
7:58 PM 70.3 °F 65.8 °F 86% 29.83 in 10.0 mi SSW 8.1 mph - 0.00 in   Overcast
8:58 PM 70.0 °F 64.8 °F 83% 29.82 in 10.0 mi South 6.9 mph - N/A   Overcast
9:58 PM 69.3 °F 64.0 °F 83% 29.82 in 10.0 mi South 11.5 mph - N/A   Overcast
10:35 PM 68.0 °F 64.4 °F 88% 29.80 in 10.0 mi South 8.1 mph - N/A Rain Light Rain
10:58 PM 67.6 °F 64.6 °F 90% 29.82 in 10.0 mi South 11.5 mph 19.6 mph 0.01 in Rain Light Rain
11:58 PM 65.8 °F 65.7 °F 99% 29.80 in 10.0 mi South 9.2 mph - 0.02 in Rain Light Rain